Temp
7 7 7 7 7 8 8 8 8 8 9 9 9 10 9 9 10 12 12 17 19 19 19 19 20 20 19 17 19 19 16 15 18 20 22 24 24 25 28 27 27 26 23 24 23
7 7 7 7 7 7 7 8 8 9 8 8 9 9 10 9 9 10 20 17 19 19 19 18 18 19 16 17 18 17 16 17 20 21 22 23 23 24 25 26 26 24 21 21 22
7 7 7 7 7 7 7 8 8 8 8 7 8 8 9 9 9 15 20 20 19 19 18 19 19 19 17 18 17 17 19 20 21 22 22 22 22 25 25 24 25 25 21 21 21
7 7 7 7 7 7 7 8 8 9 8 8 8 7 7 9 15 19 19 18 18 19 17 18 17 18 17 17 18 18 20 21 22 22 22 23 24 23 24 25 26 24 22 21 21
7 7 6 6 6 6 7 7 7 7 8 8 8 7 7 9 11 19 18 18 18 18 18 18 18 18 17 18 19 19 20 21 22 22 23 23 23 24 24 25 25 23 22 21 20
6 6 6 6 6 6 7 7 8 8 8 8 7 7 7 7 16 17 17 18 18 18 19 18 18 19 18 18 18 21 20 21 22 22 23 23 24 24 25 24 24 22 21 21 20
6 6 6 6 6 7 7 8 8 9 9 10 7 7 8 8 17 17 17 17 18 18 18 20 20 19 18 18 20 21 20 21 22 22 22 23 22 22 25 24 24 24 22 21 21
6 6 6 6 6 7 7 9 10 12 10 9 8 7 8 14 15 16 18 17 19 19 20 20 20 18 18 19 20 20 20 19 21 22 23 22 22 24 24 23 23 23 21 21 20
6 6 6 6 6 6 7 10 12 13 11 9 7 8 9 14 15 19 18 16 19 20 20 20 20 18 18 18 16 18 17 18 20 23 23 22 22 24 25 23 23 22 20 21 20
6 6 6 6 6 7 8 11 13 13 10 8 10 9 11 16 17 17 18 19 19 19 18 18 16 15 14 15 15 17 17 18 19 22 22 21 21 23 24 23 24 23 19 22 21
6 6 6 6 6 7 8 9 10 10 11 12 12 12 14 16 17 17 18 18 18 17 15 17 14 13 14 15 17 17 17 17 18 21 21 20 21 22 23 24 23 21 20 22 21
6 5 6 6 6 8 8 8 10 11 9 11 11 12 13 14 13 15 16 16 16 15 15 15 13 15 16 17 17 17 16 16 19 22 21 19 20 22 23 24 24 22 21 20 21
6 5 6 6 7 8 7 9 9 11 8 10 13 13 13 13 13 14 16 16 15 15 14 13 15 16 16 16 16 16 16 17 18 21 20 20 19 21 23 24 24 22 23 21 21
6 6 5 6 7 6 7 8 9 10 8 11 13 15 15 15 14 16 17 17 16 15 15 14 14 16 15 15 16 16 18 18 18 19 17 20 16 20 23 23 24 23 21 20 21
5 5 5 6 5 5 8 8 10 10 10 17 18 18 17 16 17 17 18 17 15 14 14 14 14 14 14 15 16 15 17 16 17 16 17 19 17 20 22 23 23 23 22 19 21
5 5 5 6 5 6 7 8 9 9 10 16 18 17 16 16 17 16 17 17 17 14 14 14 14 14 15 16 17 16 15 16 17 17 15 18 19 20 21 23 24 25 24 20 21
5 5 4 4 4 6 6 6 7 8 15 17 17 17 16 16 16 16 14 14 13 13 13 14 13 14 15 14 15 15 13 15 16 15 15 20 20 21 22 24 24 24 24 22 22
4 4 5 5 6 5 5 7 7 12 13 16 15 17 16 17 16 16 13 13 13 14 13 13 13 14 15 15 14 15 13 14 15 15 16 20 19 21 24 25 25 25 24 21 21
4 4 4 6 6 5 5 5 8 11 13 12 14 17 17 18 17 16 14 13 14 14 13 14 15 16 15 17 16 14 13 15 13 14 14 17 19 23 23 24 25 24 23 19 21
3 3 4 7 6 5 5 6 8 11 11 11 11 15 14 14 15 16 15 16 15 15 15 15 14 16 16 17 17 16 16 13 13 14 15 18 20 20 22 23 23 21 20 19 19
3 2 7 7 6 5 4 5 8 10 11 10 10 11 13 13 13 15 15 15 16 15 15 15 14 15 17 15 16 14 13 13 14 15 15 16 17 19 18 21 20 20 20 19 19
2 1 6 6 4 5 5 6 9 9 10 10 11 12 13 13 13 14 15 15 15 15 13 13 13 12 15 17 18 16 14 13 14 15 15 14 15 15 16 18 20 20 19 18 18
3 3 6 6 4 4 5 7 8 8 8 10 11 11 12 12 12 14 15 15 14 14 13 14 12 11 14 15 16 16 16 14 14 14 14 15 15 16 15 18 18 19 18 17 17
2 1 1 2 3 4 5 6 6 8 9 9 10 11 11 11 12 12 14 14 16 14 13 13 12 13 12 13 14 13 15 15 14 13 14 14 16 15 15 16 16 17 17 17 16
2 1 2 0 4 4 4 5 6 6 8 9 10 11 11 11 11 12 13 14 13 12 12 11 11 12 12 13 14 15 15 14 14 14 14 16 16 17 15 15 15 17 17 16 15
1 0 2 2 4 4 4 5 6 7 6 8 9 8 10 11 12 11 12 12 12 12 12 11 10 11 11 14 14 14 15 15 13 14 14 15 16 15 14 15 14 16 15 14 14
1 2 1 3 2 2 4 5 6 6 7 6 8 7 7 10 9 11 11 11 12 11 11 11 10 9 9 11 12 12 15 16 14 16 15 14 15 14 14 15 15 13 14 13 11
Height
826 825 825 824 820 816 814 810 807 805 801 797 792 788 785 780 772 767 761 750 751 755 757 758 759 759 761 763 760 760 782 787 776 769 751 739 745 726 718 718 715 713 718 713 721
825 824 822 821 819 816 811 808 805 801 799 796 792 787 783 779 772 762 749 748 749 752 754 755 755 757 763 761 759 766 771 766 751 749 745 740 745 738 735 724 720 719 717 715 721
825 823 819 818 818 814 810 807 802 799 795 794 790 787 782 779 773 752 746 749 750 751 752 753 752 755 761 756 757 753 750 748 743 739 739 743 739 731 735 735 720 716 719 717 720
826 822 819 816 814 812 808 803 799 794 793 791 788 786 783 779 773 746 747 748 749 749 750 749 751 755 757 756 748 756 742 741 736 736 738 739 730 732 730 722 708 707 708 713 717
824 821 817 815 809 808 805 800 797 793 789 787 785 787 785 779 762 747 746 747 746 747 746 748 750 751 754 748 746 746 739 734 731 731 730 729 731 728 722 711 705 707 711 712 713
821 819 816 810 808 805 801 796 791 787 785 784 784 784 785 784 745 744 744 745 744 745 745 744 745 743 744 744 746 734 734 732 726 725 723 728 722 721 710 704 705 705 709 709 709
819 817 814 809 804 799 794 787 783 781 779 779 781 783 778 761 742 742 744 743 741 740 740 741 740 742 741 741 731 730 738 730 723 723 722 719 725 720 703 700 701 700 703 705 706
818 813 811 807 801 795 789 781 777 772 770 773 777 780 766 742 741 736 735 738 739 736 735 735 736 738 738 734 731 733 732 740 722 719 713 722 726 707 697 700 699 698 701 701 704
816 812 808 804 799 793 785 777 770 764 763 768 775 777 760 740 738 733 733 736 734 735 732 731 732 737 737 742 747 738 746 738 728 712 713 718 719 700 690 696 696 695 698 698 700
814 811 806 801 796 790 782 773 765 762 764 768 771 775 747 737 734 733 732 731 733 734 735 735 738 744 747 749 756 747 741 734 732 715 712 717 717 698 691 692 689 688 692 692 695
812 810 805 800 794 789 783 772 772 767 764 759 756 752 740 736 733 732 732 731 729 734 746 737 748 751 746 743 737 736 738 737 730 717 720 719 714 698 689 682 683 684 685 684 686
811 809 804 799 793 789 787 786 784 782 766 751 743 742 738 742 742 729 732 734 735 742 741 746 748 739 734 733 735 735 739 738 722 711 714 716 710 695 682 674 671 674 678 680 684
809 807 804 798 791 788 788 789 784 779 777 738 729 728 727 733 738 727 730 728 732 739 740 747 737 730 732 733 735 734 737 737 732 713 712 712 710 697 676 666 662 667 667 672 676
809 806 804 798 793 789 786 785 780 778 780 740 723 716 719 720 729 718 720 725 728 736 737 739 734 730 733 734 734 736 728 729 729 721 732 709 735 697 678 675 666 662 666 668 671
806 805 804 802 799 793 790 784 780 779 773 715 710 707 710 716 714 715 716 722 729 732 737 737 735 733 733 729 730 734 728 733 727 730 725 714 727 695 678 677 668 658 659 662 660
805 804 802 800 798 794 789 783 781 784 767 716 707 711 718 714 712 715 719 719 721 731 732 731 728 730 726 721 724 731 736 731 723 724 734 711 715 697 686 671 661 652 648 653 655
802 801 801 800 795 793 791 786 792 782 727 711 712 707 710 712 714 716 725 728 734 738 739 727 728 725 723 728 730 732 742 735 733 732 728 696 703 686 670 661 658 654 643 641 643
800 800 798 795 793 793 794 790 786 747 734 717 716 703 709 704 709 712 724 732 727 726 732 732 733 723 719 721 728 727 738 733 732 729 721 694 699 682 658 649 644 643 637 638 637
799 797 794 788 791 793 796 794 771 752 740 739 720 707 705 700 705 710 719 723 719 721 731 728 723 710 713 711 721 729 736 726 734 731 732 705 688 665 657 654 644 641 638 641 638
798 795 786 782 788 792 793 785 766 754 751 751 747 718 721 717 711 706 711 706 712 712 713 719 726 708 706 710 716 717 721 736 738 732 727 699 690 687 670 669 647 651 650 647 649
797 798 782 781 785 790 791 780 763 758 757 758 752 746 728 725 723 713 708 712 709 712 713 717 722 719 709 717 716 727 730 733 729 724 721 713 707 686 686 686 670 660 656 653 652
798 803 783 785 792 787 781 774 767 761 761 758 750 740 730 726 726 719 711 711 711 711 720 721 726 730 714 698 698 712 722 730 723 720 720 724 715 703 699 682 675 669 661 657 655
797 794 781 783 784 785 777 771 767 765 760 757 748 740 736 736 731 720 714 712 712 715 720 720 729 733 713 709 706 710 708 719 722 722 718 719 711 703 701 690 684 680 673 670 669
797 799 788 781 782 783 781 775 771 763 756 755 749 744 738 733 728 727 718 715 712 715 717 719 727 726 727 720 720 722 711 711 718 716 712 710 699 703 704 701 693 691 683 678 680
793 793 790 796 781 783 784 779 772 769 757 751 743 738 736 737 730 728 722 718 720 723 722 726 733 727 724 718 715 707 705 708 711 708 709 698 700 694 700 702 702 698 692 685 690
791 794 789 787 781 781 777 773 769 763 765 751 744 742 736 733 729 729 727 726 728 726 726 729 736 730 727 713 712 708 700 697 708 704 706 703 699 701 697 700 702 701 698 696 696
787 787 789 784 786 790 779 772 768 766 754 753 748 751 745 733 736 729 729 727 724 728 731 731 734 741 740 722 717 711 695 688 695 690 694 699 695 700 701 699 703 705 704 708 714
Wind_Speed
12 13 15 17 17 17 19 20 22 24 24 24 26 28 31 34 38 30 9 14 7 5 8 11 10 7 6 4 4 4 2 5 6 12 15 9 7 12 7 6 3 6 8 7 28
13 15 15 16 18 20 20 22 22 25 26 26 26 27 30 34 32 18 11 2 4 7 11 11 6 6 3 6 4 5 7 10 9 8 15 12 6 12 9 5 5 3 5 23 31
13 14 14 17 20 22 23 24 25 25 25 26 26 26 29 28 7 6 10 7 4 11 14 8 11 4 6 4 6 6 13 6 9 14 14 9 11 12 12 9 9 7 10 15 15
17 17 17 17 20 23 26 27 27 27 26 24 25 24 26 7 5 1 7 6 21 11 9 5 3 4 5 9 8 7 7 11 13 12 12 17 18 11 8 11 8 8 18 14 13
17 19 17 19 20 24 28 30 31 28 27 25 22 19 11 2 11 14 10 16 17 11 9 5 5 4 5 5 6 11 14 16 15 14 17 17 20 20 19 14 10 10 11 15 12
16 18 18 19 21 25 30 33 32 31 29 25 19 14 3 6 8 2 6 16 9 8 7 7 7 6 6 6 9 5 12 18 16 17 17 16 18 6 18 11 10 12 14 12 12
15 17 19 22 25 29 33 32 33 33 31 25 16 10 9 18 9 16 20 15 17 12 4 8 3 2 4 5 5 5 12 14 16 8 9 7 17 11 18 9 10 9 13 11 13
17 18 24 28 31 31 34 33 33 32 27 18 7 7 9 15 17 20 10 16 14 14 16 17 9 3 4 6 5 4 4 8 7 10 11 8 19 13 11 9 12 12 9 11 12
17 21 24 28 30 33 33 31 29 20 7 7 7 6 10 10 5 10 7 7 11 12 14 14 1 3 4 3 4 4 7 7 5 6 7 8 13 9 10 8 11 10 9 11 9
18 20 24 29 31 33 31 34 14 10 11 9 2 5 8 3 3 14 7 6 4 2 2 3 2 1 4 3 6 5 4 4 4 4 4 9 11 11 13 9 17 13 9 14 15
17 20 23 29 32 28 31 13 6 4 3 6 6 6 11 8 14 7 13 5 2 3 5 3 2 7 9 8 6 5 8 9 11 12 5 8 14 18 17 18 15 10 9 16 18
17 20 23 29 30 24 14 5 11 9 11 14 21 22 28 16 9 18 18 4 5 6 3 1 8 9 6 7 2 4 9 13 13 15 7 8 15 17 19 12 14 14 11 14 11
17 19 23 29 26 7 15 15 19 18 4 14 9 8 9 19 12 16 8 6 5 6 6 7 4 7 6 8 9 5 7 9 16 19 11 8 10 8 14 7 6 8 10 10 19
17 18 19 28 6 22 4 28 24 12 4 8 6 7 7 9 6 13 11 6 5 8 5 6 3 5 5 8 11 14 6 8 16 9 6 5 5 7 10 11 8 8 9 11 17
15 16 16 18 18 8 14 29 22 3 5 3 4 13 9 6 4 3 7 4 4 5 4 4 4 2 7 13 10 8 8 13 13 3 3 4 4 6 7 13 11 9 9 10 19
14 14 15 15 16 14 22 24 7 2 7 3 6 8 5 5 3 3 2 2 3 5 2 5 0 4 4 6 13 8 4 10 6 3 4 6 4 6 5 6 8 6 9 12 18
15 13 13 13 6 19 21 9 2 4 7 2 5 7 10 7 7 6 6 7 6 4 5 2 7 3 2 2 6 7 0 2 5 4 5 7 7 13 8 13 11 11 16 11 21
14 13 15 21 21 17 13 2 8 6 7 15 13 6 9 7 9 9 8 5 6 2 2 3 5 10 7 7 6 10 6 2 4 3 1 5 5 5 6 13 14 11 11 8 19
14 13 11 21 9 5 1 4 4 4 7 15 17 2 2 5 6 5 8 6 7 8 6 3 4 2 8 7 11 4 7 5 2 0 1 4 5 6 10 15 18 13 6 11 17
10 7 12 12 15 5 3 6 6 6 10 11 7 8 8 10 9 6 10 1 4 4 4 1 3 6 5 4 7 6 1 3 3 2 4 4 2 3 10 17 8 13 9 10 6
5 3 7 6 7 1 6 7 7 9 11 5 7 9 8 8 8 6 4 3 3 2 6 1 4 4 6 6 9 4 3 3 2 3 1 2 2 10 14 12 10 12 13 12 8
1 2 3 13 2 3 8 4 5 11 9 10 7 14 4 9 3 5 3 3 3 1 3 1 3 3 7 6 11 10 7 5 3 5 5 1 3 10 14 17 15 12 14 18 19
1 2 9 6 3 6 5 11 11 13 15 6 6 6 9 4 5 3 4 4 5 3 5 3 0 3 4 5 4 4 9 12 8 1 4 2 3 2 14 10 15 12 15 17 20
1 2 3 2 1 1 5 8 8 10 16 13 14 16 14 4 4 6 3 1 2 0 6 4 1 2 3 1 1 6 5 5 11 3 3 6 3 6 10 10 13 11 13 19 19
3 3 3 2 1 1 1 6 12 10 9 10 6 15 11 4 6 5 5 4 7 5 3 3 2 1 5 11 11 12 13 12 15 16 6 3 4 9 4 4 5 7 11 18 19
2 2 3 2 4 4 4 4 11 14 6 10 9 12 6 5 7 5 3 2 1 3 2 3 2 3 4 4 6 13 13 13 12 17 17 17 13 4 9 6 9 6 11 16 18
5 2 3 3 4 3 3 6 10 14 9 17 13 5 9 4 4 4 3 3 3 4 2 1 1 3 4 7 11 6 7 11 7 15 18 8 4 8 8 8 7 11 13 14 15
Wind_Direction
345 340 334 330 330 332 328 328 330 330 330 331 331 331 330 332 328 321 262 260 225 256 266 264 260 236 183 210 212 140 180 200 211 237 248 295 324 313 296 150 220 198 158 190 156
339 336 333 331 328 326 326 325 327 329 330 329 329 330 329 333 324 274 296 228 212 224 260 237 231 203 192 207 209 174 217 207 213 244 262 288 275 287 320 262 244 80 23 127 145
339 336 335 331 327 326 323 321 323 324 326 326 326 327 326 335 307 250 110 100 17 255 249 250 253 191 205 199 210 220 237 226 243 247 259 269 281 287 276 269 233 194 165 150 157
329 329 328 328 326 324 319 321 320 322 321 320 323 325 323 334 296 256 180 350 325 270 235 229 192 188 208 209 226 257 263 237 259 254 269 267 271 277 244 256 261 203 165 164 170
330 329 325 324 325 322 320 319 317 314 315 318 321 321 331 305 249 260 252 302 323 235 218 224 220 190 219 215 223 236 245 256 259 258 257 266 265 261 269 259 264 165 171 182 174
326 326 323 327 324 320 317 316 314 311 310 310 311 312 269 268 245 306 282 301 299 255 251 223 234 243 249 231 226 264 244 250 253 252 251 253 265 252 259 242 233 157 186 190 176
325 326 329 329 326 324 323 318 312 307 309 306 301 280 249 249 268 285 287 280 287 273 249 252 272 30 317 302 245 257 258 265 253 253 247 237 273 250 257 252 250 209 180 186 183
327 332 331 329 327 323 322 317 311 310 308 290 253 225 252 260 304 291 292 282 272 270 259 267 283 246 195 258 302 269 252 255 273 250 259 177 257 275 257 226 246 248 199 183 181
327 328 329 330 328 328 324 318 317 319 292 164 161 201 260 295 255 327 275 251 272 280 262 255 323 224 290 249 316 237 247 254 284 237 253 178 267 259 263 240 250 238 207 188 184
323 329 331 333 329 330 328 326 334 70 90 132 204 229 259 274 17 326 320 295 219 236 357 180 58 176 327 136 225 242 286 280 244 281 327 316 299 289 280 235 245 237 209 188 184
326 325 330 333 329 332 334 345 9 337 38 228 216 248 291 306 317 324 307 321 233 126 188 222 151 215 226 237 234 295 306 285 285 289 301 271 276 281 279 294 243 225 212 192 194
325 323 330 330 328 330 360 11 324 281 298 259 248 252 254 277 295 295 288 195 201 214 183 264 233 225 237 263 264 265 291 299 295 278 260 283 281 285 280 260 225 205 207 187 175
325 324 328 327 327 350 334 5 348 340 290 294 241 228 226 190 231 273 188 180 190 210 199 194 247 205 231 261 271 243 261 294 294 286 279 281 277 275 300 271 197 204 211 173 175
320 324 329 331 337 336 325 345 350 342 300 274 221 226 171 152 222 217 180 177 199 207 188 234 291 212 221 226 236 230 243 298 310 298 245 85 290 280 296 284 274 216 207 184 183
317 321 322 331 304 312 327 334 341 351 318 193 160 152 154 169 141 216 161 141 180 175 146 246 191 197 231 230 223 240 272 303 289 288 294 184 239 263 295 284 287 277 227 182 182
312 313 314 325 312 289 330 336 343 81 254 263 145 175 158 200 195 88 121 38 185 160 284 227 187 205 235 244 227 223 295 265 251 204 253 216 204 263 252 241 271 271 270 181 185
312 306 299 300 273 316 331 339 73 215 318 181 203 176 197 189 186 151 169 192 187 165 224 247 220 220 146 156 202 197 44 221 223 213 237 190 203 248 274 273 259 278 281 213 181
312 305 299 282 288 299 322 75 226 278 274 336 338 222 189 190 193 171 136 192 243 163 138 185 311 174 186 183 190 190 180 259 211 220 275 299 217 235 235 277 261 260 278 162 164
313 313 280 285 298 271 269 207 225 240 350 344 322 297 286 299 178 151 180 200 200 172 180 198 262 104 168 163 205 195 207 223 12 155 293 257 285 251 359 304 277 260 235 161 165
334 310 266 301 257 180 203 248 241 265 355 342 309 8 359 346 347 189 169 299 115 184 128 266 295 259 157 142 223 156 110 127 144 239 222 240 251 353 29 335 70 62 55 57 52
339 340 300 303 154 178 220 229 280 285 311 341 313 307 335 352 328 312 130 35 62 67 111 143 173 284 133 210 199 153 152 222 231 226 282 284 48 10 35 306 7 78 64 60 49
68 279 199 356 129 213 241 232 273 284 299 285 300 278 291 329 296 317 23 86 133 104 81 170 138 258 236 187 166 207 188 183 219 180 202 65 260 317 316 14 6 28 62 58 51
245 268 294 201 248 235 278 285 269 268 272 263 272 319 332 294 311 337 4 350 127 117 156 170 99 313 324 59 101 196 199 199 218 304 217 213 225 243 314 2 7 43 57 60 57
251 303 305 39 190 120 310 276 278 311 273 253 264 283 291 322 324 287 336 303 230 179 88 70 144 242 259 291 12 287 275 277 208 209 225 217 288 160 283 3 360 26 56 67 63
197 222 216 289 353 257 10 308 297 291 278 311 269 241 257 270 326 314 12 8 29 119 63 93 206 262 283 284 280 283 245 232 251 225 232 152 248 292 202 187 315 23 46 70 70
174 186 340 287 294 279 289 260 277 299 242 281 276 340 343 273 237 297 293 128 129 19 78 353 288 353 286 290 308 296 274 215 231 250 234 261 263 4 123 111 121 42 60 68 65
201 266 95 256 343 353 291 311 306 315 250 233 262 310 309 284 314 301 244 275 164 154 135 96 93 46 284 329 314 278 237 234 225 247 214 226 249 138 110 106 109 102 79 72 73